Weather Roundup
Issued by NWS Chicago, IL

Home | Current Version | Previous Version | Text Only | Print | Product List | Glossary Off
Versions: 1 2 3 4 5 6 7 8 9 10 11 12 13 14 15 16 17 18 19 20 21 22 23 24 25 26 27 28 29 30 31 32 33 34 35 36 37 38 39 40 41 42 43 44 45 46 47 48 49 50

000
NZUS59 KLOT 312202
HRRLOT

CHICAGO AREA WEATHER ROUNDUP
NATIONAL WEATHER SERVICE CHICAGO/ROMEOVILLE IL
500 PM CDT MON AUG 31 2015

NOTE: "FAIR" INDICATES FEW OR NO CLOUDS BELOW 12,000 FEET WITH NO
SIGNIFICANT WEATHER AND/OR OBSTRUCTIONS TO VISIBILITY.

* THESE STATIONS ARE NOT UNDER NWS QUALITY CONTROL. THEY ALSO MAY NOT
  REPORT WEATHER SUCH AS PRECIPITATION OR FOG.

ILZ005-006-012>014-019>023-312300-
NORTHEAST ILLINOIS

CITY           SKY/WX    TMP DP  RH WIND       PRES   REMARKS
OHARE          MOSUNNY   85  66  53 SW7       30.01S HX  87
MIDWAY         MOSUNNY   86  67  52 SW8       30.01S HX  89
AURORA         SUNNY     85  70  60 S7        30.02F HX  89
LANSING*       SUNNY     85  67  54 SW6       30.02S HX  88
WAUKEGAN       SUNNY     75  67  76 SE7       30.02F
DUPAGE AIRPORT MOSUNNY   84  68  58 S7        30.01F HX  87
WHEELING       SUNNY     81  67  62 VRB5      30.02F HX  83
NORTHERLY IS     N/A     75  68  78 NE1         N/A
$$

WIZ051-052-058>065-066-070>072-312300-
SOUTHEAST WISCONSIN

CITY           SKY/WX    TMP DP  RH WIND       PRES   REMARKS
MILWAUKEE      PTSUNNY   75  66  73 SE12      30.02S
KENOSHA*       SUNNY     78  68  71 SE5       30.03S HX  80
RACINE*        SUNNY     75  65  70 S7        30.04S
WAUKESHA       SUNNY     79  66  65 SW6       30.03F HX  81
$$

INZ001>003-010>013-019-020-312300-
NORTHWEST INDIANA

CITY           SKY/WX    TMP DP  RH WIND       PRES   REMARKS
GARY*          MOSUNNY   82  66  57 CALM      30.02F HX  85
MICHIGAN CITY* NOT AVBL
RENSSELAER*    NOT AVBL
$$

LMZ740>746-312300-
SOUTHERN LAKE MICHIGAN

STATION/POSITION TIME  SKY/WX   TEMP WIND        PRES    VSBY
                                AIR  DIR/SP/G
                 (UTC)          (F)  (DEG/KT/KT) (MB)    (MI)
HARRISON CRIB    2100            72   80/  8/  8   N/A
BURNHAM HARBOR   2200            75   80/  1/  3   N/A
CALUMET HARBOR   2100            76   50/  2/  5   N/A
BURNS HARBOR     2100            75   70/  9/ 10 1017.3F
MICHIGAN CITY    2100            73   30/  7/  8   N/A
$$

ABBREVIATIONS USED IN REMARKS
   TC - TEMPERATURE IN CELSIUS
  WCI - WIND CHILL INDEX
   HX - HEAT INDEX
  VSB - VISIBILITY
$$


USA.gov is the U.S. government's official web portal to all federal, state and local government web resources and services.